Regional Weather Roundup
Issued by NWS

Home | Current Version | Previous Version | Text Only | Print | Product List | Glossary Off
Versions: 1 2 3 4 5 6 7 8 9 10 11 12 13 14 15 16 17 18 19 20 21 22 23 24 25 26 27 28 29 30 31 32 33 34 35 36 37 38 39 40 41 42 43 44 45 46 47 48 49 50

000
ASUS43 KOAX 290710
RWRNE

WEATHER ROUNDUP FOR NEBRASKA
NATIONAL WEATHER SERVICE OMAHA NE
200 AM CDT WED JUL 29 2015

NOTES: SATELLITE DATA IS BEING USED TO AUGMENT CLOUD COVER ABOVE
       12000 FEET.
       "FAIR" INDICATES FEW OR NO CLOUDS BELOW 12,000 FEET WITH NO
       SIGNIFICANT WEATHER AND/OR OBSTRUCTIONS TO VISIBILITY.

  * THESE STATIONS DO NOT REPORT WEATHER SUCH AS RAIN...SNOW OR FOG.

NEZ001>004-019>022-054>056-290800-
NEBRASKA PANHANDLE

CITY           SKY/WX    TMP DP  RH WIND       PRES   REMARKS
SCOTTSBLUFF    CLEAR     54  44  69 N5        30.24S
ALLIANCE       CLEAR     47  42  83 CALM      30.24R
CHADRON        CLEAR     48  42  80 SW7       30.23R
KIMBALL        PTCLDY    55  39  54 NE5       30.26S
SIDNEY         CLEAR     52  41  66 N7        30.25R
$$

NEZ057>060-069>072-079>082-290800-
SOUTHWEST NEBRASKA

CITY           SKY/WX    TMP DP  RH WIND       PRES   REMARKS
NORTH PLATTE   CLEAR     55  51  86 CALM      30.17R
IMPERIAL       CLEAR     59  50  72 CALM      30.19R
LEXINGTON      CLEAR     59  51  76 CALM      30.14R
MCCOOK         CLEAR     62  52  69 CALM      30.15R
OGALLALA       CLEAR     55  48  76 CALM      30.19S
$$

NEZ005>010-023>029-035>040-094-290800-
NORTH CENTRAL NEBRASKA

CITY           SKY/WX    TMP DP  RH WIND       PRES   REMARKS
VALENTINE      CLEAR     52  46  80 W6        30.16S
AINSWORTH      CLEAR     59  49  69 NW3       30.17R
BROKEN BOW     CLEAR     57  50  77 N5        30.14R
O`NEILL        CLEAR     62  54  73 N5        30.13S
ORD            CLEAR     57  55  93 CALM      30.12R
THEDFORD       CLEAR     60  48  65 CALM      30.20R
$$

NEZ041-046>049-061>064-073>077-083>087-290800-
SOUTH CENTRAL NEBRASKA

CITY           SKY/WX    TMP DP  RH WIND       PRES   REMARKS
GRAND ISLAND   CLEAR     61  55  81 NE3       30.12R
AURORA         CLEAR     60  59  95 N5        30.11S
HASTINGS       CLEAR     63  56  78 NE7       30.12R
HEBRON         PTCLDY    67  61  80 NE3       30.09S
HOLDREGE       CLEAR     58  55  88 NE5       30.13R
KEARNEY *      CLEAR     61  54  77 NE5       30.13R
YORK           CLEAR     61  57  88 NE5       30.10S
$$

NEZ011>018-030>034-042>045-290800-
NORTHEAST NEBRASKA

CITY           SKY/WX    TMP DP  RH WIND       PRES   REMARKS
NORFOLK        CLEAR     60  56  86 W5        30.10R
ALBION         CLEAR     56  53  91 NW5       30.11S
BLAIR          CLOUDY    65  60  84 NW3       30.07S
COLUMBUS *     CLEAR     55  50  82 CALM      30.10S
FREMONT        PTCLDY    64  61  90 CALM      30.08S
TEKAMAH        PTCLDY    63  61  93 W6        30.07R
WAYNE          CLEAR     58  56  94 CALM      30.10R
$$

NEZ050>053-065>068-078-088>093-290800-
SOUTHEAST NEBRASKA

CITY           SKY/WX    TMP DP  RH WIND       PRES   REMARKS
LINCOLN        PTCLDY    64  61  90 N7        30.08S
OMAHA EPPLEY   CLOUDY    66  63  90 NW7       30.05F
BEATRICE       CLOUDY    67  65  92 S3        30.08R
FALLS CITY     TSTM      73  73 100 W7        30.06R
NEBRASKA CITY  CLOUDY    70  60  70 N9        30.04R
PLATTSMOUTH    CLOUDY    69  60  73 N3        30.05F
$$

NEZ044-045-051>053-067-290800-
OMAHA AREA

CITY           SKY/WX    TMP DP  RH WIND       PRES   REMARKS
OMAHA EPPLEY   CLOUDY    66  63  90 NW7       30.05F
BLAIR          CLOUDY    65  60  84 NW3       30.07S
FREMONT        PTCLDY    64  61  90 CALM      30.08S
MILLARD        CLOUDY    70  62  74 CALM      30.06S
OFFUTT AFB     CLOUDY    71  61  72 N5        30.04F
PLATTSMOUTH    CLOUDY    69  60  73 N3        30.05F
WAHOO          FAIR      64  61  93 NW5       30.09R
$$



USA.gov is the U.S. government's official web portal to all federal, state and local government web resources and services.